Regional Weather Roundup
Issued by NWS

Home | Current Version | Previous Version | Text Only | Print | Product List | Glossary On
Versions: 1 2 3 4 5 6 7 8 9 10 11 12 13 14 15 16 17 18 19 20 21 22 23 24 25 26 27 28 29 30 31 32 33 34 35 36 37 38 39 40 41 42 43 44 45 46 47 48 49 50
000
ASUS43 KDTX 220901
RWRMI
MICHIGAN HOURLY REGIONAL WEATHER ROUNDUP
NATIONAL WEATHER SERVICE DETROIT/PONTIAC MI
500 AM EDT FRI SEP 22 2017

NOTE: "FAIR" INDICATES FEW OR NO CLOUDS BELOW 12,000 FEET WITH NO
SIGNIFICANT WEATHER AND/OR OBSTRUCTION TO VISIBILITY.

MIZ047>049-052>055-059>063-066>070-074>076-081>083-221000-
SOUTHEAST LOWER MICHIGAN

CITY           SKY/WX    TMP DP  RH WIND       PRES   REMARKS
ADRIAN         CLEAR     67  66  97 CALM      30.11S FOG
ALMA           CLEAR     62  60  94 CALM      30.10R
ANN ARBOR      CLEAR     64  64 100 CALM      30.11R
BAD AXE        CLEAR     66  62  87 SE3       30.12S
CARO           CLEAR     63  61  95 CALM      30.11R
DETROIT CITY   CLEAR     68  66  93 CALM      30.11R
DETROIT        MOCLDY    70  65  84 NE3       30.11R
FLINT          CLEAR     63  62  97 CALM      30.11R
GROSSE ILE     PTCLDY    68  65  90 CALM      30.09R
HILLSDALE      CLEAR     64  64 100 CALM      30.11S FOG
HOWELL         CLEAR     66  64  93 SE3       30.11S

CITY           SKY/WX    TMP DP  RH WIND       PRES   REMARKS
JACKSON        CLEAR     70  66  87 E3        30.11R FOG
LAMBERTVILLE   CLEAR     69  66  92 CALM      30.09S FOG
LANSING        PTCLDY    68  64  87 SE5       30.11R
LAPEER         FAIR      62  61  97 CALM      30.12R FOG
MASON          CLEAR     69  66  91 E7        30.11S FOG
MONROE         CLEAR     68  66  92 N3        30.09S
MT. CLEMENS    CLOUDY    66  66 100 N3        30.10R
PONTIAC        CLOUDY    66  65  96 CALM      30.11R
PORT HOPE        N/A     71  61  70 S6        30.09R
PORT HURON     FOG       63  61  94 CALM      30.13R VSB 1/4
TRI CITIES     CLEAR     66  62  87 S6        30.11R
MIDLAND        FAIR      63  62  96 CALM      30.09R
TROY           CLEAR     68  64  88 CALM      30.13S
SAGINAW HB     CLEAR     61  59  94 SE3       30.09S
$$
MIZ043>046-050>051-056>058-064>065-071>073-077>080-221000-
SOUTHWEST LOWER MICHIGAN

CITY           SKY/WX    TMP DP  RH WIND       PRES   REMARKS
BATTLE CREEK   CLEAR     68  65  90 CALM      30.11R
BENTON HARBOR  CLEAR     69  66  90 SE3       30.06R
BIG RAPIDS     CLEAR     62  60  93 CALM      30.09R
COLDWATER      CLEAR     69  69 100 E3        30.10R
FREMONT        FAIR      67  65  92 CALM      30.06S
HOLLAND        CLEAR     68  64  87 CALM      30.07R
GRAND RAPIDS   CLEAR     67  63  87 SE3       30.08R
IONIA          FAIR      64  64  97 SE5       30.09R
KALAMAZOO      CLEAR     69  64  84 CALM      30.09R
LUDINGTON      CLEAR     64  63  96 CALM      30.04R
MARSHALL       CLEAR     67  66  97 CALM      30.10R
MOUNT PLEASANT CLEAR     64  62  94 CALM      30.09R
MUSKEGON       CLEAR     70  65  84 SE5       30.05S
SOUTH HAVEN    CLEAR     71  67  88 CALM      30.06R
$$
MIZ016>042-221000-
NORTHERN LOWER MICHIGAN

CITY           SKY/WX    TMP DP  RH WIND       PRES   REMARKS
ALPENA         MOCLDY    62  62 100 CALM      30.08R FOG
BEAVER ISLAND  MOCLDY    67  67  99 SE6       30.03S
BELLAIRE       CLEAR     60  58  96 CALM      30.05R FOG
CADILLAC       CLEAR     63  60  90 CALM      30.09R
CHARLEVOIX     CLEAR     67  67 100 SE5       30.07R
FRANKFORT      CLEAR     67  67 100 CALM      30.03S
GAYLORD        CLEAR     65  63  93 CALM      30.09R FOG
GRAYLING       FOG       64  60  87 CALM      30.10S VSB 1/4
HARBOR SPRINGS CLEAR     63  62  94 E5        30.04S FOG
HOUGHTON LAKE  CLEAR     63  63 100 CALM      30.10R
MANISTEE       CLEAR     65  63  93 E5        30.04R
OSCODA         CLEAR     69  69 100 SW8       30.09R FOG
PELLSTON       FOG       61  61 100 CALM      30.05S VSB 1/4
ROGERS CITY    FOG       61  60  97 CALM      30.07S VSB 1
TRAVERSE CITY  CLEAR     66  63  90 CALM      30.03R
$$
MIZ007>008-015-221000-
EASTERN UPPER MICHIGAN

CITY           SKY/WX    TMP DP  RH WIND       PRES   REMARKS
KINROSS        FOG       62  62 100 SE5       30.05S VSB 1
MACKINAC ISLAN CLEAR     65  65 100 SE8       30.04S FOG
NEWBERRY       CLEAR     63  62  97 SE6       30.03S FOG
S. S. MARIE    FOG       64  63  96 CALM      30.04S VSB 1/4
MUNISING         N/A     66  66 100 S7        29.98F
$$
MIZ004>006-011>014-085-221000-
CENTRAL UPPER MICHIGAN

CITY           SKY/WX    TMP DP  RH WIND       PRES   REMARKS
MANISTIQUE     CLEAR     66  60  81 SE5       30.02R
ESCANABA       FOG       61  61 100 CALM      30.00S VSB 1/4
MENOMINEE      CLEAR     67  65  93 CALM      30.00S FOG
SAWYER-GWINN   DRIZZLE   64  63  99 S10       30.00F
$$
MIZ001>003-009>011-084-221000-
WESTERN UPPER MICHIGAN

CITY           SKY/WX    TMP DP  RH WIND       PRES   REMARKS
IRON MOUNTAIN  FOG       65  63  93 SE3       29.99S VSB 1/4
HOUGHTON       CLOUDY    61  58  90 E5        29.93S
COPPER HARBOR    N/A     64  62  93 SW8       29.91F
IRONWOOD       CLOUDY    70  65  84 S7        29.91S
$$

ABBREVIATIONS USED IN REMARKS
   TC - TEMPERATURE IN CELSIUS
  WCI - WIND CHILL INDEX
   HX - HEAT INDEX
  VSB - VISIBILITY





USA.gov is the U.S. government's official web portal to all federal, state and local government web resources and services.